Location: Cannifist
(18.2333°N, 63.0167°W)
Time: 01:34:06
(UTC+00:00)

COSMOS 2487 - Pass Details

Date: 27 February 2020
Orbit: 442 x 445 km, 74.7° (Epoch: 06 April)

Event Time Altitude Azimuth Distance (km) Brightness Sun altitude
Rises 23:22:52 0° 350° (N) 2,426 6.2 -16.3°
Reaches altitude 10° 23:24:57 10° 352° (N) 1,556 5.2 -16.8°
Maximum altitude 23:28:21 70° 77° (ENE) 471 2.2 -17.6°
Enters shadow 23:30:44 18° 159° (SSE) 1,145 4.3 -18.2°
